Location: Boise
(43.6140°N, 116.2030°W)
Time: 09:21:50
(UTC-06:00)

Daily predictions for brighter satellites

Satellite Brightness Start Highest point End
(mag) Time Altitude Azimuth Time Altitude Azimuth Time Altitude Azimuth
Cosmos 1934 Rocket 4.0 20:25:32 10° S 20:31:39 90° ESE 20:37:44 10° N
Cosmos 1269 Rocket 4.2 20:28:43 10° NNW 20:33:56 57° ENE 20:39:07 10° SE
Cosmos 2082 Rocket 2.3 20:29:04 10° NNW 20:34:43 60° ENE 20:40:18 10° SE
Cosmos 1818 3.8 20:31:06 10° NW 20:36:34 78° WSW 20:41:58 10° SSE
CZ-3B DEB 3.4 20:26:43 10° WSW 20:38:13 64° NW 20:43:25 10° NE
Cosmos-2242 4.0 20:35:15 10° SE 20:38:45 25° E 20:42:16 10° NNE
Cosmos 1766 Rocket 4.1 20:36:06 10° N 20:40:19 38° ENE 20:44:29 10° SE
FengYun 1-2 T 4.3 20:38:53 10° SSE 20:44:27 78° ENE 20:50:07 10° NNW
BREEZE-M DEB (TANK) 3.0 20:43:56 10° SW 20:46:39 64° SE 20:53:38 10° ENE
ALOS 2.3 20:42:55 10° SSE 20:47:35 86° WSW 20:52:18 10° NNW
Cosmos 1271 Rocket 3.6 20:44:50 10° SSE 20:48:21 30° E 20:51:53 10° NNE
Cosmos 1674 3.1 20:46:26 10° N 20:50:04 42° ENE 20:53:42 10° SSE
GP-B 3.7 20:47:56 10° SSE 20:51:59 36° E 20:56:03 10° NNE
Meteor 1-4 Rocket 2.3 20:49:01 10° S 20:52:28 75° E 20:55:57 10° NNE
Timation 1 Rocket 4.4 20:48:37 10° SSW 20:54:38 89° WNW 21:00:42 10° NNE
USA 186 2.2 20:54:24 14° ESE 20:55:38 22° ENE 20:57:28 10° NNE
Spot 2 Rocket 3.5 20:52:37 10° SSE 20:57:42 73° ENE 21:02:49 10° N
Cosmos 1758 3.3 20:55:13 10° S 20:59:12 90° SE 21:03:13 10° N
Cosmos 1184 Rocket 4.3 20:57:38 10° NNE 21:00:16 21° ENE 21:01:50 15° ESE
Resurs 01 Rocket 1.6 20:58:56 10° SSE 21:03:21 88° ENE 21:07:48 10° NNW
GPS 2-05 Rocket1 4.5 21:00:48 10° SW 21:03:38 22° S 21:05:45 14° SE
Cosmos 1953 2.4 21:00:39 10° S 21:04:42 86° W 21:08:46 10° N
Cosmos 2098 Rocket 4.4 20:59:35 10° S 21:07:01 83° E 21:14:34 10° N
Cosmos 1544 3.9 21:04:08 10° SSW 21:07:43 55° W 21:11:21 10° N
Cosmos 482 Debris 2.4 21:08:37 10° NW 21:10:26 58° NNE 21:10:54 38° E
Cosmos 1743 Rocket 4.1 21:07:07 10° N 21:11:17 38° ENE 21:14:54 13° SE
Cosmos 1500 Rocket 4.5 21:08:04 10° NNE 21:11:49 28° ENE 21:14:04 18° ESE
CZ-4C R/B 3.7 21:11:08 10° SE 21:17:58 - ENE 21:12:09 13° SE
Cosmos 1867 3.9 21:09:04 10° SW 21:14:30 71° NW 21:19:59 10° NNE
CZ-4B DEB 3.4 21:14:22 22° ESE 21:15:46 33° ENE 21:18:36 10° N
Envisat 3.4 21:11:41 12° SE 21:16:01 42° ENE 21:20:47 10° N
SeaSat 1 3.0 21:14:52 10° SSE 21:19:44 60° WSW 21:24:37 10° NW
Cosmos 1939 Rocket 3.7 21:17:33 20° ESE 21:19:47 33° ENE 21:23:32 10° N
Lacrosse 5 rocket 1.4 21:19:32 10° NW 21:23:26 65° SW 21:25:53 20° SSE
ERS-1 Rocket 3.9 21:23:12 21° ESE 21:25:23 29° ENE 21:29:39 10° N
CZ-2D R/B 3.6 21:21:48 10° S 21:25:39 68° W 21:29:32 10° NNW
Cosmos 2369 Rocket 3.2 21:23:53 19° SE 21:25:39 22° E 21:29:52 10° NE
Helios 1B rocket 2.4 21:21:38 10° NNE 21:25:43 56° ESE 21:29:44 10° S
ISS -3.8 21:22:56 10° WSW 21:26:11 77° NNW 21:28:31 18° NE
Cosmos 2100 Rocket 4.0 21:20:07 10° S 21:26:25 73° E 21:32:47 10° NNE
Cosmos 2151 3.9 21:23:16 10° NNE 21:27:00 29° ENE 21:28:05 25° ESE
Geosat 4.1 21:22:15 10° NE 21:27:12 54° ESE 21:32:06 10° S
Cosmos 1125 Rocket 4.4 21:23:06 10° SW 21:28:09 51° WNW 21:33:16 10° NNE
Cosmos 1408 Rocket 4.0 21:25:44 10° NNW 21:30:11 64° W 21:34:35 10° S
BREEZE-M DEB (TANK) 2.9 21:32:11 10° NW 21:34:21 38° NNE 21:35:06 30° ENE
MINOTAUR R/B 4.2 21:33:01 10° SSW 21:35:53 81° ESE 21:38:47 10° NNE
Cosmos 1833 Rocket 3.5 21:30:35 10° NW 21:35:59 50° WSW 21:41:23 10° S
TIMED 4.4 21:34:30 10° SSW 21:38:50 76° ESE 21:43:13 10° NNE
Tsikada Rocket 4.4 21:33:24 10° N 21:39:17 42° ENE 21:42:23 25° SE
CZ-4B DEB 4.5 21:37:12 20° SSE 21:39:35 90° WSW 21:43:11 10° NNW
Cosmos 1733 3.5 21:36:43 10° SSW 21:40:34 68° W 21:44:26 10° N
H-2A R/B 3.9 21:40:24 14° ENE 21:40:49 14° ENE 21:43:22 10° NNE
CZ-3 Stage 3 4.1 21:03:07 10° W 21:41:15 46° SSW 21:46:33 22° SE
Cosmos 1842 Rocket 3.5 21:43:01 10° S 21:47:23 65° E 21:51:44 10° NNE
ATLAS 5 CENTAUR R/B 2.5 21:42:48 10° SW 21:47:27 56° NW 21:52:34 10° NNE
Meteor 1-29 2.8 21:44:21 10° NNE 21:47:51 86° ESE 21:51:21 10° SSW
Cosmos 1470 3.6 21:44:22 10° SSW 21:48:14 52° W 21:52:08 10° N
Cosmos 1802 Rocket 3.9 21:45:28 10° S 21:51:36 89° E 21:57:50 10° N
Helios 1A 3.6 21:49:21 11° S 21:53:18 54° W 21:57:26 10° NNW
Lacrosse 5 4.1 22:00:50 10° WNW 22:04:44 22° NNW 22:08:40 10° NE
Cosmos 1340 Rocket 4.4 22:01:50 10° NNW 22:05:28 34° W 22:09:05 10° SSW
Cosmos 1356 Rocket 3.5 22:04:34 10° NNW 22:08:40 69° W 22:09:53 42° SSW
YAOGAN 6 2.8 22:09:57 61° NE 22:09:57 61° NE 22:13:17 10° N
MetOp-A 4.3 22:09:32 45° E 22:10:23 50° ENE 22:15:33 10° N
SPOT 5 3.5 22:10:42 40° E 22:11:06 41° ENE 22:16:02 10° N
Terra 4.0 22:14:14 13° NE 22:14:14 13° NE 22:15:24 10° NNE
Cosmos 2251 Rocket 3.9 22:09:15 10° NNW 22:14:31 64° WSW 22:17:07 30° S
ARGOS 3.6 22:17:53 42° ENE 22:18:02 42° ENE 22:23:03 10° N
Cosmos 2082 Rocket 4.5 22:14:13 10° NW 22:18:17 20° W 22:22:19 10° SW
Cosmos 2233 Rocket 4.0 22:18:00 48° ESE 22:19:00 53° E 22:24:57 10° NNE
YAOGAN 11 4.3 22:21:17 60° ENE 22:21:17 60° ENE 22:25:33 10° N
USA 215 3.2 22:17:48 10° NE 22:24:12 56° SE 22:30:35 10° SSW
SPOT 1/Viking Rocket 4.3 22:24:58 36° NE 22:24:58 36° NE 22:29:17 10° N
Cosmos 1864 Rocket 4.4 22:18:55 10° S 22:25:12 88° W 22:31:32 10° N
SL-14 R/B 4.3 22:21:39 10° NNW 22:25:20 43° W 22:26:15 36° SW
Cosmos 389 Rocket 3.7 22:32:05 41° WNW 22:32:05 41° WNW 22:35:17 10° N
Cosmos 2221 3.2 22:34:55 46° NNE 22:34:55 46° NNE 22:38:03 10° N
Cosmos 2058 3.6 22:37:55 10° NNW 22:41:47 50° W 22:41:47 50° W
Cosmos 1626 3.8 22:42:30 10° NNW 22:44:35 31° NNW 22:44:35 31° NNW
H-2A R/B 4.1 22:51:00 18° NNE 22:51:00 18° NNE 22:52:18 10° N
MOS 1-B Rocket 4.5 22:48:46 57° ESE 22:49:51 63° ENE 22:56:31 10° N
CZ-3B DEB 3.7 22:45:17 10° WNW 22:50:13 21° NNW 22:52:04 16° NNE
Gblst 52 Del rocket 4.1 22:47:11 10° WSW 22:53:03 80° NNW 22:53:20 77° N
Cosmos 1805 Rocket 4.4 22:49:23 10° N 22:52:36 47° NNW 22:52:36 47° NNW
USA 267 3.7 22:56:11 44° ENE 22:57:24 50° NNE 23:03:39 10° NW
CZ-4C R/B 2.4 22:56:35 10° SW 23:02:39 65° N 23:07:55 10° NE
ISS -0.7 23:00:21 10° WNW 23:01:13 15° WNW 23:01:13 15° WNW
ERS-1 Rocket 4.1 23:03:12 34° WSW 23:04:01 37° W 23:08:40 10° NNW
MetOp-B 4.5 23:04:25 59° WSW 23:04:26 59° W 23:09:44 10° NNW
Cosmos 2369 Rocket 2.7 23:03:43 10° SW 23:09:14 56° WNW 23:14:46 10° NNE
H-2A R/B 2.9 23:21:02 48° NNW 23:21:02 48° NNW 23:24:48 10° NNW
Cosmos 2227 Rocket 4.3 23:20:50 10° N 23:23:34 17° NNE 23:23:34 17° NNE
Cosmos 1943 Rocket 3.6 23:31:54 30° NNE 23:31:54 30° NNE 23:34:41 10° NNE
Lacrosse 5 4.1 23:45:50 10° NW 23:49:21 18° N 23:49:23 18° N
ATLAS 3B R/B 4.2 23:54:41 26° NE 23:54:41 26° NE 23:57:27 10° NE
Terra 3.9 23:53:07 24° NNW 23:53:07 24° NNW 23:54:59 10° NNW
